Goodland, KS

8:48 AM MST on December 14, 2019 (GMT -0700)
Renner-Goodland Municipal

Weather History for KGLD - September, 2019

Change the Weather History Date:

Thursday, September 19, 2019

  Actual Average Record
Temperature  
Mean Temperature 71 °F 63 °F  
Max Temperature 91 °F 78 °F 99 °F (1935)
Min Temperature 51 °F 49 °F 32 °F (1971)
Degree Days  
Heating Degree Days 0 4  
Month to date heating degree days 2 43  
Since 1 July heating degree days 2 55  
Cooling Degree Days 6 3  
Month to date cooling degree days 161 84  
Year to date cooling degree days 1007 917  
Growing Degree Days 21 (Base 50)    
Moisture  
Dew Point 55 °F    
Average Humidity 66    
Maximum Humidity 100    
Minimum Humidity 32    
Precipitation  
Precipitation 0.00 in 0.04 in 0.92 in (1921)
Month to date precipitation 0.36 0.79  
Year to date precipitation 21.22 16.69  
Snow  
Snow 0.00 in 0.10 in - ()
Month to date snowfall 0.0 0.2  
Since 1 July snowfall 0.0 0.2  
Since 1 September snowfall 0.0 0.2  
Snow Depth 0.00 in    
Sea Level Pressure  
Sea Level Pressure 29.85 in    
Wind  
Wind Speed 14 mph (SSE)    
Max Wind Speed 49 mph    
Max Gust Speed 70 mph    
Visibility 8 miles    
Events Fog , Thunderstorm    
T = Trace of Precipitation, MM = Missing Value Source: NWS Daily Summary

Daily Weather History Graph

Daily Weather History Graph

Search for Another Location

Airport or City:

Astronomy

Sep. 19, 2019 Rise Set
Actual Time 6:31 AM MDT 6:49 PM MDT
Civil Twilight 6:04 AM MDT 7:15 PM MDT
Nautical Twilight 5:33 AM MDT 7:47 PM MDT
Astronomical Twilight 5:01 AM MDT 8:19 PM MDT
Moon 10:01 PM MDT (9/19) 11:35 AM MDT (9/19)
Length of Visible Light 13h 11m
Length of Day
12h 17m
Waning Gibbous, 74% of the Moon is Illuminated
Sep 19
Waning Gibbous
Sep 21
Last Quarter
Sep 28
New
Oct 5
First Quarter
Oct 13
Full

Hourly Weather History & Observations

Time (MDT) Temp. Heat Index Dew Point Humidity Pressure Visibility Wind Dir Wind Speed Gust Speed Precip Events Conditions
12:53 AM 57.9 °F - 55.9 °F 93% 29.91 in 10.0 mi SE 4.6 mph - N/A   Clear
1:53 AM 55.9 °F - 55.0 °F 97% 29.88 in 10.0 mi SSE 4.6 mph - N/A   Clear
2:53 AM 55.9 °F - 55.9 °F 100% 29.86 in 10.0 mi SE 3.5 mph - N/A   Clear
3:53 AM 55.9 °F - 55.9 °F 100% 29.85 in 8.0 mi SE 4.6 mph - N/A   Clear
4:53 AM 54.0 °F - 53.1 °F 97% 29.85 in 6.0 mi North 4.6 mph - N/A   Clear
5:53 AM 54.0 °F - 54.0 °F 100% 29.86 in 5.0 mi Calm Calm - N/A   Clear
6:14 AM 53.1 °F - 53.1 °F 100% 29.96 in 2.5 mi Calm Calm - N/A   Clear
6:22 AM 52.0 °F - 52.0 °F 100% 29.96 in 5.0 mi Calm Calm - N/A   Clear
6:27 AM 52.0 °F - 52.0 °F 100% 29.96 in 1.5 mi Calm Calm - N/A   Clear
6:30 AM 52.0 °F - 52.0 °F 100% 29.96 in 0.2 mi ESE 4.6 mph - N/A Fog Fog
6:37 AM 52.0 °F - 52.0 °F 100% 29.96 in 0.2 mi ESE 5.8 mph - N/A Fog Fog
6:53 AM 51.1 °F - 51.1 °F 100% 29.88 in 0.5 mi SE 4.6 mph - N/A Fog Fog
7:09 AM 51.1 °F - 51.1 °F 100% 29.96 in 1.2 mi Calm Calm - N/A   Partly Cloudy
7:14 AM 52.0 °F - 52.0 °F 100% 29.96 in 3.0 mi Calm Calm - N/A   Clear
7:53 AM 62.1 °F - 59.0 °F 90% 29.88 in 10.0 mi South 5.8 mph - N/A   Clear
8:53 AM 66.9 °F - 59.0 °F 76% 29.89 in 10.0 mi WSW 8.1 mph - N/A   Clear
9:53 AM 72.0 °F - 59.0 °F 64% 29.89 in 10.0 mi WSW 6.9 mph - N/A   Clear
10:53 AM 77.0 °F - 59.0 °F 54% 29.87 in 10.0 mi WSW 5.8 mph - N/A   Clear
11:53 AM 82.9 °F 82.6 °F 57.9 °F 42% 29.84 in 10.0 mi SW 8.1 mph - N/A   Clear
12:53 PM 87.1 °F 85.9 °F 57.0 °F 36% 29.81 in 10.0 mi South 10.4 mph - N/A   Clear
1:53 PM 90.0 °F 89.1 °F 59.0 °F 35% 29.78 in 10.0 mi SSE 15.0 mph 25.3 mph N/A   Clear
2:53 PM 91.0 °F 90.0 °F 57.9 °F 33% 29.75 in 10.0 mi SSE 17.3 mph 27.6 mph N/A   Clear
3:53 PM 87.1 °F 86.1 °F 57.9 °F 37% 29.74 in 10.0 mi SSE 23.0 mph 35.7 mph N/A   Clear
4:31 PM 87.1 °F 85.9 °F 57.0 °F 36% 29.86 in 10.0 mi South 20.7 mph 29.9 mph N/A Thunderstorm Scattered Clouds
4:46 PM 86.0 °F 85.0 °F 57.9 °F 38% 29.85 in 10.0 mi SSE 19.6 mph 32.2 mph N/A   Clear
4:53 PM 86.0 °F 85.0 °F 57.9 °F 38% 29.74 in 10.0 mi SSE 18.4 mph 31.1 mph N/A   Clear
5:53 PM 82.9 °F 82.8 °F 59.0 °F 44% 29.78 in 7.0 mi SSE 39.1 mph 56.4 mph N/A   Partly Cloudy
6:53 PM 73.0 °F - 51.1 °F 46% 29.78 in 10.0 mi SSE 36.8 mph 54.1 mph N/A   Clear
7:20 PM 75.9 °F - 48.0 °F 37% 29.81 in 7.0 mi South 36.8 mph 70.2 mph N/A   Squalls
7:53 PM 73.0 °F - 48.9 °F 42% 29.72 in 10.0 mi SSE 32.2 mph 50.6 mph N/A   Clear
8:53 PM 69.1 °F - 51.1 °F 53% 29.81 in 10.0 mi SSE 17.3 mph 27.6 mph N/A   Clear
9:53 PM 69.1 °F - 52.0 °F 54% 29.84 in 10.0 mi SSE 15.0 mph - N/A   Clear
10:53 PM 66.9 °F - 57.9 °F 73% 29.84 in 10.0 mi SSE 21.9 mph 31.1 mph N/A   Clear
11:53 PM 64.9 °F - 57.9 °F 78% 29.83 in 10.0 mi South 13.8 mph - N/A   Clear